TimeCDT,TemperatureF,Dew PointF,Humidity,Sea Level PressureIn,VisibilityMPH,Wind Direction,Wind SpeedMPH,Gust SpeedMPH,PrecipitationIn,Events,Conditions,WindDirDegrees,DateUTC
12:09 AM,73.4,69.8,88,29.78,10.0,NNE,9.2,-,N/A,,Overcast,30,2013-09-22 05:09:00
12:16 AM,73.4,68.0,83,29.77,10.0,NE,9.2,-,N/A,,Overcast,40,2013-09-22 05:16:00
12:53 AM,72.0,68.0,87,29.77,10.0,NNE,8.1,-,N/A,,Overcast,30,2013-09-22 05:53:00
1:07 AM,71.6,69.8,94,29.77,10.0,NNE,6.9,-,N/A,,Overcast,30,2013-09-22 06:07:00
1:38 AM,71.6,68.0,88,29.77,10.0,NNE,9.2,-,0.00,Rain,Light Rain,30,2013-09-22 06:38:00
1:53 AM,72.0,68.0,87,29.76,10.0,NNE,8.1,-,0.00,Rain,Light Rain,30,2013-09-22 06:53:00
2:53 AM,71.1,68.0,90,29.75,10.0,NNE,8.1,-,0.00,,Overcast,20,2013-09-22 07:53:00
3:53 AM,71.1,68.0,90,29.74,10.0,NNE,6.9,-,N/A,,Mostly Cloudy,30,2013-09-22 08:53:00
4:18 AM,71.6,66.2,83,29.73,10.0,NNE,10.4,-,N/A,,Mostly Cloudy,30,2013-09-22 09:18:00
4:37 AM,71.6,68.0,88,29.73,10.0,NNE,6.9,-,0.00,Rain,Light Rain,20,2013-09-22 09:37:00
4:53 AM,71.1,68.0,90,29.73,10.0,NNE,6.9,-,0.00,Rain,Light Rain,20,2013-09-22 09:53:00
5:24 AM,69.8,68.0,94,29.74,10.0,NE,9.2,-,0.00,,Partly Cloudy,40,2013-09-22 10:24:00
5:53 AM,70.0,66.9,90,29.75,10.0,NNE,9.2,-,0.00,,Clear,30,2013-09-22 10:53:00
6:53 AM,69.1,66.9,93,29.75,10.0,NNE,8.1,-,0.00,,Mostly Cloudy,20,2013-09-22 11:53:00
7:53 AM,70.0,66.0,87,29.79,10.0,North,5.8,-,N/A,,Mostly Cloudy,10,2013-09-22 12:53:00
8:53 AM,71.1,66.0,84,29.79,10.0,NNE,11.5,-,N/A,,Mostly Cloudy,30,2013-09-22 13:53:00
9:53 AM,73.0,66.0,79,29.81,10.0,North,10.4,-,N/A,,Overcast,10,2013-09-22 14:53:00
10:19 AM,75.2,66.2,73,29.80,10.0,North,9.2,-,N/A,,Mostly Cloudy,360,2013-09-22 15:19:00
10:53 AM,75.0,66.0,73,29.81,10.0,NNE,12.7,-,N/A,,Mostly Cloudy,20,2013-09-22 15:53:00
11:53 AM,78.1,66.9,68,29.80,10.0,NNE,10.4,-,N/A,,Partly Cloudy,20,2013-09-22 16:53:00
12:53 PM,80.1,66.9,64,29.80,10.0,ENE,9.2,-,N/A,,Mostly Cloudy,60,2013-09-22 17:53:00
1:53 PM,82.9,66.9,58,29.77,10.0,NE,8.1,-,N/A,,Partly Cloudy,40,2013-09-22 18:53:00
2:53 PM,82.0,66.0,58,29.76,10.0,North,9.2,-,N/A,,Partly Cloudy,10,2013-09-22 19:53:00
3:53 PM,81.0,64.9,58,29.75,10.0,North,10.4,-,N/A,,Clear,10,2013-09-22 20:53:00
4:53 PM,81.0,64.9,58,29.75,10.0,NNE,6.9,-,N/A,,Clear,20,2013-09-22 21:53:00
5:53 PM,79.0,64.0,60,29.77,10.0,NNE,4.6,-,N/A,,Clear,30,2013-09-22 22:53:00
6:53 PM,77.0,66.0,69,29.79,10.0,North,6.9,-,N/A,,Clear,360,2013-09-22 23:53:00
7:53 PM,75.9,63.0,64,29.79,10.0,NNE,8.1,-,N/A,,Scattered Clouds,20,2013-09-23 00:53:00
8:53 PM,75.0,63.0,66,29.80,10.0,NNE,5.8,-,N/A,,Clear,20,2013-09-23 01:53:00
9:53 PM,73.0,63.0,71,29.81,10.0,North,4.6,-,N/A,,Clear,360,2013-09-23 02:53:00
10:53 PM,72.0,63.0,73,29.81,10.0,North,4.6,-,N/A,,Partly Cloudy,10,2013-09-23 03:53:00
11:53 PM,72.0,62.1,71,29.80,10.0,NNE,8.1,-,N/A,,Clear,30,2013-09-23 04:53:00